Date String (YYYY-MM-DD hh:mm:ss) UTC,Instrument flags,Ambient pressure (hPa),Sample flow (lpm),Bypass flow (lpm),Sample temperature (°C),Ambient temperature (°C),ASC tube jacket temperature (°C),LED temperature (°C),Box temperature (°C),Sample RH (%),Span deviation,Mass concentration (μg/m³),Mass concentration (μg/m³),Mass concentration (μg/m³)
DateTimeUTC,F1_M11,P_M11,Q1_M11,Q2_M11,T1_M11,T2_M11,T3_M11,T4_M11,T5_M11,U1_M11,ZSPAN_M11,X0_M11,X2_M11,X1_M11
2022-07-05 10:00:00,,0826.2,4.99,0.00,29.7,28.5,00.0,38.5,31.6,22.5,0000.0,0005.88,0002.94,0002.38
2022-07-05 10:01:00,,0826.2,5.00,0.00,29.7,28.6,00.0,38.5,31.6,22.5,0000.0,0005.87,0002.97,0002.37
2022-07-05 10:02:00,,0826.2,5.01,0.00,29.7,28.6,00.0,38.5,31.6,22.4,0000.0,0005.51,0002.85,0002.34
2022-07-05 10:03:00,,0826.2,5.00,0.00,29.8,28.6,00.0,38.5,31.7,22.4,0000.0,0005.66,0002.88,0002.34
2022-07-05 10:04:00,,0826.2,5.01,0.00,29.8,28.7,00.0,38.5,31.7,22.3,0000.0,0005.81,0002.93,0002.35
2022-07-05 10:05:00,,0826.2,5.01,0.00,29.8,28.7,00.0,38.5,31.7,22.3,0000.0,0006.07,0002.96,0002.33
2022-07-05 10:06:00,,0826.2,5.00,0.00,29.8,28.7,00.0,38.5,31.7,22.3,0000.0,0006.05,0002.91,0002.30
2022-07-05 10:07:00,,0826.2,5.00,0.00,29.8,28.8,00.0,38.6,31.7,22.2,0000.0,0006.07,0002.91,0002.27
2022-07-05 10:08:00,,0826.2,5.00,0.00,29.8,28.8,00.0,38.6,31.7,22.2,0000.0,0005.98,0002.92,0002.25
2022-07-05 10:09:00,,0826.2,4.99,0.00,29.9,28.8,00.0,38.6,31.8,22.2,0000.0,0004.72,0002.90,0002.23
2022-07-05 10:10:00,,0826.2,5.00,0.00,29.9,28.8,00.0,38.6,31.7,22.2,0000.0,0004.66,0002.87,0002.20
2022-07-05 10:11:00,,0826.2,4.99,0.00,29.9,28.8,00.0,38.6,31.8,22.1,0000.0,0005.31,0002.78,0002.18
2022-07-05 10:12:00,,0826.2,4.99,0.00,29.9,28.9,00.0,38.6,31.8,22.1,0000.0,0005.98,0002.76,0002.15
2022-07-05 10:13:00,,0826.2,5.00,0.00,29.9,28.9,00.0,38.7,31.8,22.1,0000.0,0006.02,0002.76,0002.14
2022-07-05 10:14:00,,0826.2,4.99,0.00,29.9,28.9,00.0,38.7,31.8,22.1,0000.0,0005.70,0002.66,0002.12
2022-07-05 10:15:00,,0826.2,5.00,0.00,30.0,28.9,00.0,38.7,31.9,22.1,0000.0,0005.56,0002.60,0002.09
2022-07-05 10:16:00,,0826.2,5.00,0.00,30.0,28.9,00.0,38.7,31.9,22.2,0000.0,0005.20,0002.54,0002.08
2022-07-05 10:17:00,,0826.2,5.00,0.00,30.0,28.2,00.0,38.6,31.8,22.1,0000.0,0005.17,0002.57,0002.10
2022-07-05 10:18:00,,0826.2,5.01,0.00,29.9,27.5,00.0,38.6,31.7,22.2,0000.0,0005.18,0002.59,0002.10
2022-07-05 10:19:00,,0826.1,4.99,0.00,29.9,27.3,00.0,38.6,31.5,22.2,0000.0,0005.26,0002.61,0002.09
2022-07-05 10:20:00,,0826.2,5.00,0.00,29.8,27.4,00.0,38.6,31.4,22.3,0000.0,0005.35,0002.64,0002.10
2022-07-05 10:21:00,,0826.2,5.01,0.00,29.7,27.5,00.0,38.5,31.4,22.4,0000.0,0005.53,0002.72,0002.10
2022-07-05 10:22:00,,0826.2,5.00,0.00,29.7,27.6,00.0,38.5,31.4,22.4,0000.0,0004.86,0002.77,0002.11
2022-07-05 10:23:00,,0826.2,4.99,0.00,29.6,27.7,00.0,38.5,31.4,22.5,0000.0,0004.13,0002.75,0002.12
2022-07-05 10:24:00,,0826.2,5.00,0.00,29.6,27.8,00.0,38.5,31.4,22.4,0000.0,0004.14,0002.75,0002.11
2022-07-05 10:25:00,,0826.2,5.01,0.00,29.6,28.0,00.0,38.5,31.4,22.4,0000.0,0004.33,0002.80,0002.12
2022-07-05 10:26:00,,0826.2,5.00,0.00,29.6,28.1,00.0,38.5,31.4,22.5,0000.0,0004.38,0002.80,0002.13
2022-07-05 10:27:00,,0826.2,5.00,0.00,29.6,28.1,00.0,38.5,31.4,22.5,0000.0,0004.52,0002.84,0002.13
2022-07-05 10:28:00,,0826.2,5.00,0.00,29.6,28.2,00.0,38.5,31.5,22.5,0000.0,0004.56,0002.80,0002.12
2022-07-05 10:29:00,,0826.2,5.00,0.00,29.6,28.3,00.0,38.5,31.5,22.5,0000.0,0004.84,0002.81,0002.12
2022-07-05 10:30:00,,0826.2,5.00,0.00,29.7,28.4,00.0,38.5,31.5,22.6,0000.0,0004.76,0002.76,0002.11
2022-07-05 10:31:00,,0826.2,5.00,0.00,29.7,28.4,00.0,38.5,31.5,22.4,0000.0,0004.79,0002.72,0002.08
2022-07-05 10:32:00,,0826.2,5.01,0.00,29.7,28.5,00.0,38.5,31.5,22.2,0000.0,0004.72,0002.67,0002.07
2022-07-05 10:33:00,,0826.2,4.99,0.00,29.7,28.5,00.0,38.5,31.6,22.3,0000.0,0004.71,0002.66,0002.06
2022-07-05 10:34:00,,0826.2,5.00,0.00,29.7,28.5,00.0,38.5,31.6,22.3,0000.0,0004.73,0002.68,0002.04
2022-07-05 10:35:00,,0826.1,5.00,0.00,29.7,28.6,00.0,38.5,31.6,22.2,0000.0,0004.88,0002.73,0002.03
2022-07-05 10:36:00,,0826.1,5.01,0.00,29.7,28.6,00.0,38.5,31.6,22.2,0000.0,0004.79,0002.70,0002.00
2022-07-05 10:37:00,,0826.2,5.00,0.00,29.8,28.6,00.0,38.5,31.7,22.3,0000.0,0004.88,0002.75,0002.00
2022-07-05 10:38:00,,0826.2,5.01,0.00,29.8,28.7,00.0,38.5,31.7,22.3,0000.0,0004.88,0002.76,0002.00
2022-07-05 10:39:00,,0826.2,5.00,0.00,29.8,28.7,00.0,38.6,31.7,22.1,0000.0,0005.03,0002.86,0001.99
2022-07-05 10:40:00,,0826.2,5.01,0.00,29.8,28.7,00.0,38.6,31.7,22.1,0000.0,0004.89,0002.88,0001.99
2022-07-05 10:41:00,,0826.2,5.00,0.00,29.8,28.8,00.0,38.6,31.7,22.2,0000.0,0004.91,0002.87,0001.99
2022-07-05 10:42:00,,0826.2,5.00,0.00,29.9,28.8,00.0,38.6,31.8,22.1,0000.0,0004.92,0002.93,0002.01
2022-07-05 10:43:00,,0826.2,5.00,0.00,29.9,28.8,00.0,38.6,31.7,21.8,0000.0,0004.93,0002.92,0002.01
2022-07-05 10:44:00,,0826.2,5.00,0.00,29.9,28.8,00.0,38.6,31.7,21.9,0000.0,0004.88,0002.92,0002.02
2022-07-05 10:45:00,,0826.2,5.00,0.00,29.9,28.8,00.0,38.6,31.8,21.9,0000.0,0004.91,0002.89,0002.02
2022-07-05 10:46:00,,0826.2,4.99,0.00,29.9,28.9,00.0,38.6,31.8,21.8,0000.0,0004.73,0002.83,0002.02
2022-07-05 10:47:00,,0826.2,5.01,0.00,29.9,28.9,00.0,38.6,31.8,21.8,0000.0,0004.66,0002.81,0002.02
2022-07-05 10:48:00,,0826.2,5.00,0.00,30.0,28.9,00.0,38.7,31.8,21.7,0000.0,0004.48,0002.75,0002.01
2022-07-05 10:49:00,,0826.2,4.99,0.00,30.0,28.9,00.0,38.7,31.8,21.7,0000.0,0004.30,0002.69,0002.00
2022-07-05 10:50:00,,0826.2,4.99,0.00,30.0,28.9,00.0,38.7,31.9,21.7,0000.0,0004.21,0002.67,0002.03
2022-07-05 10:51:00,,0826.2,5.00,0.00,30.0,29.0,00.0,38.7,31.9,21.7,0000.0,0004.77,0002.66,0002.03
2022-07-05 10:52:00,,0826.2,4.99,0.00,30.0,29.0,00.0,38.7,31.9,21.7,0000.0,0005.19,0002.66,0002.02
2022-07-05 10:53:00,,0826.2,5.00,0.00,30.0,29.0,00.0,38.7,31.9,21.6,0000.0,0005.35,0002.67,0002.02
2022-07-05 10:54:00,,0826.2,5.00,0.00,30.0,28.6,00.0,38.7,31.9,21.6,0000.0,0005.27,0002.64,0002.01
2022-07-05 10:55:00,,0826.1,5.01,0.00,30.0,27.8,00.0,38.7,31.7,21.6,0000.0,0005.34,0002.66,0002.00
2022-07-05 10:56:00,,0826.1,5.01,0.00,29.9,27.5,00.0,38.6,31.6,21.7,0000.0,0005.26,0002.65,0001.99
2022-07-05 10:57:00,,0826.1,5.00,0.00,29.8,27.4,00.0,38.6,31.5,21.8,0000.0,0005.27,0002.67,0001.98
2022-07-05 10:58:00,,0826.1,5.00,0.00,29.8,27.5,00.0,38.6,31.4,21.8,0000.0,0005.26,0002.66,0001.98
2022-07-05 10:59:00,,0826.1,5.00,0.00,29.7,27.6,00.0,38.6,31.4,21.8,0000.0,0005.36,0002.67,0001.97
